Location: Aufkirchen
(47.9603°N, 11.3653°E)
Time: 10:10:15
(UTC+01:00)

Tiros 1 - Pass Details

Date: 29 November 2020
Orbit: 630 x 663 km, 48.4° (Epoch: 28 January)

Event Time Altitude Azimuth Distance (km) Brightness Sun altitude
Rises 16:10:39 0° 240° (WSW) 2,986 13.8 1.1°
Reaches altitude 10° 16:13:01 10° 236° (SW) 2,075 12.3 0.8°
Maximum altitude 16:17:44 60° 157° (SSE) 759 7.7 0.1°
Drops below altitude 10° 16:22:26 10° 79° (ENE) 2,070 9.2 -0.5°
Sets 16:24:48 0° 75° (ENE) 2,979 9.9 -0.9°
Enters shadow 16:24:52 - 75° (ENE) 3,007 10.0 -0.9°
